カタログに戻る

PRATHAM

運用中科学SSO
NORAD 41783·PAYLOAD·🇮🇳 India

打ち上げ Sep 26, 2016 から Satish Dhawan Space Centre

Loading…

次のパス (今後24時間)

TLE

最新Source: Space-Track

元期: Sep 14, 2026, 10:39 UTC

1 41783U 16059A   26257.44402367  .00000464  00000-0  90167-4 0  9997
2 41783  97.8402 250.4179 0029848 295.7407  64.0718 14.67295421532601

AllMySatでPRATHAMをリアルタイム追跡

Download on the App Store